Location: Cactus School
(34.5700°N, 118.0931°W)
Time: 10:51:19
(UTC-07:00)

Tiros 1 despin weight - All Passes

Search period start: 19 April 2024 00:00
Search period end: 29 April 2024 00:00
Orbit: 579 x 623 km, 48.2° (Epoch: 19 April)

Date Brightness Start Highest point End Pass type
(mag) Time Alt. Az. Time Alt. Az. Time Alt. Az.
19 Apr - 12:17:03 10° SSW 12:20:59 33° SE 12:25:00 10° ENE daylight
19 Apr - 13:57:55 10° W 14:02:06 40° NNW 14:06:21 10° NE daylight
19 Apr - 15:41:24 10° NW 15:44:13 16° N 15:47:04 10° NNE daylight
19 Apr - 17:24:01 10° NNW 17:26:50 16° N 17:29:40 10° NE daylight
19 Apr - 19:04:42 10° NW 19:09:00 39° NNE 19:13:17 10° E daylight
19 Apr - 20:45:56 10° WNW 20:50:10 37° SW 20:54:23 10° SSE visible
20 Apr - 12:27:30 10° SW 12:31:51 65° SE 12:36:16 10° ENE daylight
20 Apr - 14:09:31 10° W 14:13:18 27° NNW 14:17:08 10° NE daylight
20 Apr - 15:53:12 10° NW 15:55:40 14° N 15:58:10 10° NNE daylight
20 Apr - 17:34:54 10° NNW 17:38:14 20° NNE 17:41:34 10° ENE daylight
20 Apr - 19:15:32 10° NW 19:20:04 65° NE 19:24:37 10° ESE daylight
20 Apr - 20:57:36 10° W 21:00:56 20° SW 21:04:14 10° S visible
21 Apr - 10:59:08 10° S 11:02:02 17° SE 11:04:57 10° E daylight
21 Apr - 12:38:25 10° WSW 12:42:47 68° NW 12:47:14 10° NE daylight
21 Apr - 14:21:19 10° WNW 14:24:35 20° NNW 14:27:54 10° NNE daylight
21 Apr - 16:04:40 10° NNW 16:07:08 14° N 16:09:36 10° NE daylight
21 Apr - 17:45:41 10° NW 17:49:32 26° NNE 17:53:23 10° E daylight
21 Apr - 19:26:29 10° WNW 19:31:01 71° SW 19:35:35 10° SE daylight
22 Apr - 11:08:48 10° SSW 11:12:45 33° SE 11:16:43 10° ENE daylight
22 Apr - 12:49:41 10° W 12:53:50 40° NNW 12:58:03 10° NE daylight
22 Apr - 14:33:11 10° NW 14:35:57 16° N 14:38:44 10° NNE daylight
22 Apr - 16:15:46 10° NNW 16:18:33 16° N 16:21:22 10° NE daylight
22 Apr - 17:56:26 10° NW 18:00:41 39° NNE 18:04:59 10° E daylight
22 Apr - 19:37:39 10° WNW 19:41:52 37° SW 19:46:04 10° SSE daylight
23 Apr - 11:19:13 10° SW 11:23:32 66° SE 11:27:56 10° ENE daylight
23 Apr - 13:01:15 10° W 13:05:00 26° NNW 13:08:47 10° NE daylight
23 Apr - 14:44:57 10° NW 14:47:22 14° N 14:49:48 10° NNE daylight
23 Apr - 16:26:37 10° NNW 16:29:54 19° NNE 16:33:13 10° ENE daylight
23 Apr - 18:07:13 10° NW 18:11:44 65° NE 18:16:17 10° ESE daylight
23 Apr - 19:49:18 10° W 19:52:34 20° SW 19:55:52 10° S visible
24 Apr - 09:50:47 10° S 09:53:41 17° SE 09:56:36 10° E daylight
24 Apr - 11:30:06 10° WSW 11:34:26 68° NW 11:38:52 10° NE daylight
24 Apr - 13:13:01 10° WNW 13:16:15 19° NNW 13:19:31 10° NNE daylight
24 Apr - 14:56:22 10° NNW 14:58:46 14° N 15:01:13 10° NE daylight
24 Apr - 16:37:20 10° NW 16:41:09 26° NNE 16:45:01 10° E daylight
24 Apr - 18:18:07 10° WNW 18:22:39 70° SW 18:27:11 10° SE daylight
25 Apr - 10:00:26 10° SSW 10:04:21 34° SE 10:08:19 10° ENE daylight
25 Apr - 11:41:20 10° W 11:45:27 39° NNW 11:49:38 10° NE daylight
25 Apr - 13:24:51 10° NW 13:27:34 16° N 13:30:18 10° NNE daylight
25 Apr - 15:07:24 10° NNW 15:10:09 16° N 15:12:56 10° NE daylight
25 Apr - 16:48:02 10° NW 16:52:17 39° NNE 16:56:33 10° E daylight
25 Apr - 18:29:16 10° WNW 18:33:26 36° SW 18:37:37 10° SSE daylight
26 Apr - 10:10:49 10° SW 10:15:06 66° SE 10:19:29 10° ENE daylight
26 Apr - 11:52:51 10° W 11:56:34 26° NNW 12:00:18 10° NE daylight
26 Apr - 13:36:33 10° NW 13:38:55 14° N 13:41:18 10° NNE daylight
26 Apr - 15:18:11 10° NNW 15:21:27 19° NNE 15:24:45 10° ENE daylight
26 Apr - 16:58:47 10° NW 17:03:16 66° NE 17:07:48 10° ESE daylight
26 Apr - 18:40:52 10° W 18:44:06 19° SW 18:47:21 10° S daylight
27 Apr - 08:42:20 10° S 08:45:13 18° SE 08:48:08 10° E daylight
27 Apr - 10:21:39 10° WSW 10:25:58 67° NW 10:30:22 10° NE daylight
27 Apr - 12:04:35 10° WNW 12:07:46 19° NNW 12:10:59 10° NNE daylight
27 Apr - 13:47:56 10° NNW 13:50:18 14° N 13:52:41 10° NE daylight
27 Apr - 15:28:52 10° NW 15:32:39 26° NNE 15:36:29 10° E daylight
27 Apr - 17:09:38 10° WNW 17:14:08 70° SW 17:18:39 10° SE daylight
28 Apr - 08:51:56 10° SSW 08:55:51 34° SE 08:59:48 10° ENE daylight
28 Apr - 10:32:51 10° W 10:36:56 39° NNW 10:41:05 10° NE daylight
28 Apr - 12:16:23 10° NW 12:19:03 15° N 12:21:43 10° NNE daylight
28 Apr - 13:58:54 10° NNW 14:01:38 16° N 14:04:22 10° NE daylight
28 Apr - 15:39:30 10° NW 15:43:44 39° NNE 15:48:00 10° E daylight
28 Apr - 17:20:44 10° WNW 17:24:53 36° SW 17:29:02 10° SSE daylight
